Home   Weather   Abbotsford   Past weeks
Flag for Canada

Past Weather in Abbotsford, British Columbia, Canada — Yesterday and Last 2 Weeks

Now
61 °F

Passing clouds.


Feels Like: 61 °F
Forecast: 56 / 50 °F
Wind: 9 mph from Southwest

Location: Abbotsford

Current Time: May 19, 2019 at 9:43:07 pm

Latest Report: May 19, 2019 at 9:00 pm


Visibility: 30 mi

Pressure: 29.70 "Hg

Humidity: 63%

Dew Point: 48 °F

Location of AbbotsfordLocation

Past Weather in Abbotsford — Graph

°F

Abbotsford Temperature Yesterday

Maximum temperature yesterday: 72 °F (at 4:00 pm)
Minimum temperature yesterday: 48 °F (at 6:00 am)
Average temperature yesterday: 59 °F

High & Low Weather Summary for the Past Weeks

 TemperatureHumidityPressure
High82 °F (May 10, 5:00 pm)100% (May 14, 7:00 am)30.20 "Hg (May 14, 7:00 am)
Low46 °F (May 6, 5:00 am)24% (May 9, 2:00 pm)29.53 "Hg (May 16, 2:00 pm)
Average60 °F69%29.89 "Hg
* Reported May 4 8:00 pm — May 19 8:00 pm, Abbotsford. Weather by CustomWeather, © 2019

Note: Actual official high and low records may vary slightly from our data, if they occured in-between our weather recording intervals... More about our weather records

Advertising

Abbotsford Weather History for the Previous 24 Hours

Scroll right to see more
 ConditionsComfort  
Time TempWeatherWind HumidityBarometerVisibility
8:00 pm
Sun, May 19
66 °FPartly sunny.8 mph56%29.69 "Hg30 mi
7:00 pm70 °FPartly sunny.10 mph40%29.68 "Hg30 mi
6:00 pm72 °FPartly sunny.14 mph44%29.68 "Hg20 mi
5:00 pm70 °FCloudy.14 mph50%29.68 "Hg25 mi
4:00 pm72 °FBroken clouds.12 mph53%29.68 "Hg30 mi
3:00 pm70 °FCloudy.9 mph53%29.69 "Hg30 mi
2:00 pm72 °FCloudy.2 mph57%29.70 "Hg30 mi
1:00 pm70 °FBroken clouds.7 mph53%29.71 "Hg30 mi
12:00 pm68 °FPartly sunny.6 mph56%29.71 "Hg30 mi
11:00 am66 °FBroken clouds.5 mph52%29.72 "Hg30 mi
10:00 am63 °FBroken clouds.3 mph56%29.72 "Hg30 mi
9:00 am61 °FScattered clouds.3 mph68%29.73 "Hg30 mi
8:00 am59 °FScattered clouds.No wind72%29.72 "Hg30 mi
7:00 am55 °FPassing clouds.6 mph82%29.73 "Hg30 mi
6:00 am50 °FScattered clouds.No wind88%29.71 "Hg30 mi
5:00 am48 °FPassing clouds.3 mph94%29.70 "Hg30 mi
4:00 am52 °FPassing clouds.No wind88%29.69 "Hg15 mi
3:00 am54 °FPartly cloudy.2 mph77%29.68 "Hg15 mi
2:00 am54 °FPassing clouds.2 mph82%29.67 "Hg15 mi
1:00 am57 °FPartly cloudy.6 mph77%29.67 "Hg15 mi
12:00 am55 °FPartly cloudy.2 mph82%29.67 "Hg15 mi
11:00 pm
Sat, May 18
57 °FPartly cloudy.No wind77%29.66 "Hg15 mi
10:00 pm59 °FPartly cloudy.2 mph72%29.65 "Hg15 mi
9:00 pm59 °FPassing clouds.3 mph77%29.65 "Hg30 mi
Weather by CustomWeather, © 2019

See weather overview